[[{"header":{"parameterUnit":"m.s-1","parameterCategory":1,"la1":30.2991,"la2":30.254,"lo1":-89.0895,"lo2":-89.0444,"dy":0.0017,"dx":0.0017,"nx":28,"ny":28,"refTime":"2024-06-24T21:00:00:Z","depth":0,"parameterNumber":2,"parameterNumberName":"U-component_of_WINDS"},"data":[0,0,0,0,0,0,0,0,0,0,0,0,0,0,0,0,0,0,0,0,0,0,0,0,0,0,0,0,0,0,0,0,0,0,0,0,0,0,0,0,0,0,0,0,0,0,0,0,0,0,0,0,0,0,0,0,0,0,2.4922,2.4923,0,2.4998,2.4999,2.5,2.4923,2.492,2.4917,2.4915,2.4999,2.5004,2.5009,0,0,0,0,0,0,0,0,0,0,0,0,0,2.4715,2.4719,2.4922,2.4923,2.4924,2.4998,2.4999,2.5,2.4924,2.492,2.4917,2.4913,2.4997,2.5003,2.501,0,0,0,0,0,0,0,0,0,0,0,0,0,2.48,2.472,2.4922,2.4895,2.4893,2.4998,2.4999,2.5001,2.4925,2.492,2.4916,2.4911,2.4995,2.5003,2.501,2.5148,0,0,2.5034,2.5037,0,0,0,0,0,0,0,0,2.4795,2.4807,2.4898,2.4897,2.4895,2.4947,2.4957,2.505,2.4926,2.4913,2.4914,2.4909,2.4986,2.4994,2.5018,2.5152,2.5156,2.5034,2.5039,2.5042,2.5044,0,0,0,0,0,0,0,2.4789,2.4804,2.4953,2.4899,2.4898,2.488,2.4887,2.4974,2.4974,2.4914,2.4908,2.4918,2.4984,2.5011,2.502,2.5157,2.5034,2.5041,2.5046,2.5048,2.5404,2.5409,0,0,0,0,0,0,2.4785,2.4799,2.495,2.4955,2.4833,2.4887,2.4895,2.4935,2.4973,2.4974,2.4922,2.4914,2.5,2.5011,2.5022,2.5184,2.5042,2.5049,2.5054,2.5399,2.5405,2.541,0,0,0,0,0,0,2.4781,2.48,2.4947,2.4876,2.4893,2.4896,2.4941,2.4939,2.4965,2.4979,2.4979,2.4949,2.4997,2.5012,2.5116,2.5186,2.5053,2.506,2.5393,2.5401,2.5408,2.551,0,0,0,0,0,0,2.4776,2.4799,2.4851,2.4877,2.4897,2.5039,2.4945,2.4943,2.4978,2.4969,2.5005,2.5006,2.4995,2.5105,2.5124,2.5194,2.5065,2.5387,2.5397,2.5405,2.5501,2.552,2.5537,0,0,0,0,0,2.4769,2.4879,2.4854,2.4872,2.4962,2.5043,2.5055,2.5037,2.4984,2.5036,2.5044,2.5005,2.5175,2.5117,2.5137,2.5211,2.5383,2.5394,2.5405,2.5493,2.5516,2.5537,0,0,0,0,0,0,2.4864,2.4882,2.4854,2.4976,2.5008,2.503,2.5096,2.5064,2.5114,2.5103,2.5081,2.509,2.52,2.5216,2.515,2.5344,2.527,2.5286,2.533,2.5353,2.5371,2.5365,2.5072,0,0,0,0,0,2.4898,2.4961,2.4974,2.508,2.5097,2.5094,2.5129,2.5112,2.5146,2.516,2.5176,2.5211,2.5272,2.5313,2.5371,2.5502,2.5508,2.5562,2.558,2.5595,2.561,2.5678,2.5702,2.5447,2.5446,2.5446,0,0,2.4972,2.4989,2.5031,2.51,2.5123,2.5189,2.5106,2.5181,2.5231,2.5172,2.527,2.5283,2.5321,2.5439,2.5492,2.5456,2.5681,2.5609,2.5621,2.5627,2.5692,2.5716,2.5738,2.5454,2.5453,2.5451,0,0,2.5139,2.5158,2.5248,2.5271,2.5306,2.5302,2.5323,2.5349,2.5354,2.5452,2.5408,2.5467,2.5574,2.5602,2.563,2.5803,2.5769,2.5822,2.5918,2.5985,2.6005,2.6023,2.6084,2.6106,2.5836,2.5836,2.5837,0,2.5226,2.5323,2.5298,2.5375,2.5406,2.5352,2.5442,2.5467,2.552,2.5543,2.5501,2.563,2.5652,2.5775,2.5816,2.5842,2.5865,2.5819,2.6004,2.6021,2.6037,2.6095,2.6119,2.5843,2.5842,2.5841,2.5841,0,2.5428,2.5496,2.5564,2.5612,2.5651,2.5735,2.5723,2.5765,2.5744,2.5745,2.5844,2.5868,2.5927,2.5955,2.5937,2.6075,2.605,2.6006,2.5932,2.6068,2.6122,2.6145,2.5852,2.5849,2.5848,2.5846,0,0,2.5662,2.5691,2.5717,2.5736,2.5768,2.5821,2.5901,2.5956,2.5993,2.603,2.6097,2.6186,2.6143,2.6176,2.6159,2.6218,2.6352,2.6166,2.6167,2.62,2.6504,2.6537,2.6563,2.6328,2.6332,2.6336,2.65,0,2.5829,2.5966,2.5944,2.6077,2.6138,2.6086,2.6155,2.6183,2.6185,2.6238,2.6241,2.6303,2.6244,2.6262,2.6318,2.6324,2.6413,2.6312,2.6391,2.6394,2.6384,2.6592,2.6628,2.6783,2.6521,2.6525,2.6528,0,2.6044,2.6085,2.6223,2.6242,2.6267,2.633,2.6377,2.6428,2.6458,2.6455,2.6488,2.646,2.654,2.6463,2.6573,2.6504,2.6535,2.6543,2.6548,2.6556,2.647,2.6606,2.6832,2.6855,2.6561,2.6558,2.6556,0,2.62,2.6289,2.6382,2.6401,2.6426,2.6471,2.6484,2.6508,2.6542,2.6583,2.6605,2.6657,2.6685,2.6726,2.6713,2.6657,2.6825,2.6747,2.6826,2.6826,2.6865,2.6863,2.71,2.6884,2.6884,2.6883,2.6883,0,2.639,2.6476,2.6452,2.651,2.6605,2.6578,2.6673,2.6679,2.6701,2.6759,2.6718,2.6774,2.6752,2.6807,2.6797,2.6889,2.6902,2.6903,2.6899,2.6907,2.6907,2.6928,2.6917,2.6889,2.6888,2.6887,2.6886,0,2.6581,2.6568,2.6666,2.6679,2.6684,2.6754,2.6766,2.682,2.6816,2.6891,2.6907,2.6902,2.6964,2.6954,2.7024,2.7017,2.7131,2.7115,2.7121,2.7117,2.7196,2.7189,2.7456,2.7489,2.7251,2.7253,2.7255,0,2.6704,2.6768,2.6787,2.6821,2.6836,2.6893,2.6925,2.6901,2.6937,2.6973,2.7023,2.7079,2.7124,2.7225,2.723,2.7282,2.7266,2.7356,2.7274,2.7279,2.7268,2.7264,2.727,2.7373,2.7376,2.7378,2.738,0,2.6923,2.6912,2.6959,2.7004,2.7043,2.7078,2.7108,2.7139,2.7117,2.716,2.722,2.7255,2.7323,2.738,2.7428,2.7442,2.7408,2.7404,2.7425,2.7435,2.7436,2.7436,2.7165,2.7399,2.7397,2.7396,2.7395,2.7394,2.7084,2.7137,2.7157,2.7211,2.723,2.7259,2.7309,2.731,2.7359,2.7411,2.7394,2.7463,2.7488,2.7548,2.7567,2.7621,2.7588,2.7619,2.7627,2.7635,2.7644,2.7425,2.763,2.7629,2.7629,2.7628,2.7628,0,2.73,2.7309,2.7358,2.74,2.7442,2.7401,2.7432,2.7471,2.7531,2.7556,2.7599,2.7668,2.7722,2.7728,2.7779,2.7821,2.7807,2.7836,2.7833,2.7837,2.7671,2.7647,2.7847,2.7847,2.7847,2.7846,2.7846,2.7846,2.7418,2.7506,2.7497,2.7594,2.7603,2.7668,2.7688,2.7714,2.7734,2.7811,2.7855,2.7857,2.7874,2.7926,2.7973,2.7974,2.7995,2.803,2.8025,2.7871,2.7849,2.7828,2.7806,2.8035,2.8035,2.8186,2.8187,2.8189]},{"header":{"parameterUnit":"m.s-1","parameterCategory":1,"la1":30.2991,"la2":30.254,"lo1":-89.0895,"lo2":-89.0444,"dy":0.0017,"dx":0.0017,"nx":28,"ny":28,"refTime":"2024-06-24T21:00:00:Z","depth":0,"parameterNumber":3,"parameterNumberName":"V-component_of_WINDS"},"data":[0,0,0,0,0,0,0,0,0,0,0,0,0,0,0,0,0,0,0,0,0,0,0,0,0,0,0,0,0,0,0,0,0,0,0,0,0,0,0,0,0,0,0,0,0,0,0,0,0,0,0,0,0,0,0,0,0,0,3.0491,3.0492,0,3.0578,3.0579,3.058,3.054,3.0538,3.0536,3.0534,3.0618,3.0622,3.0626,0,0,0,0,0,0,0,0,0,0,0,0,0,3.0284,3.0288,3.0491,3.0492,3.0493,3.0578,3.0579,3.0581,3.0541,3.0538,3.0535,3.0533,3.0616,3.0621,3.0626,0,0,0,0,0,0,0,0,0,0,0,0,0,3.0373,3.029,3.0491,3.0484,3.0484,3.0578,3.0579,3.0581,3.0541,3.0538,3.0535,3.0532,3.0614,3.0621,3.0627,3.0731,0,0,3.0646,3.0649,0,0,0,0,0,0,0,0,3.0368,3.0381,3.0484,3.0484,3.0485,3.0545,3.0537,3.0631,3.0542,3.0519,3.0534,3.053,3.0596,3.0603,3.0627,3.0735,3.0739,3.0647,3.0651,3.0654,3.0655,0,0,0,0,0,0,0,3.0362,3.0377,3.0525,3.0485,3.0486,3.0474,3.0483,3.0555,3.0574,3.0521,3.0518,3.0529,3.0595,3.0621,3.0628,3.074,3.0647,3.0652,3.0656,3.0659,3.0937,3.094,0,0,0,0,0,0,3.0357,3.0372,3.0523,3.0528,3.0417,3.0481,3.0491,3.0529,3.0574,3.0577,3.0532,3.0527,3.0611,3.0621,3.0631,3.0755,3.0654,3.066,3.0663,3.0933,3.0938,3.0942,0,0,0,0,0,0,3.0353,3.0371,3.0519,3.0449,3.0467,3.0488,3.0531,3.0532,3.0558,3.0582,3.0585,3.0555,3.0609,3.0622,3.0707,3.0758,3.0662,3.0668,3.0929,3.0935,3.094,3.1005,0,0,0,0,0,0,3.0347,3.0369,3.0411,3.0451,3.0471,3.0595,3.0534,3.0536,3.057,3.0564,3.0604,3.0608,3.0608,3.0698,3.0713,3.0765,3.0673,3.0925,3.0932,3.0938,3.0998,3.1012,3.1024,0,0,0,0,0,3.034,3.0425,3.0413,3.0431,3.0524,3.0598,3.061,3.061,3.0574,3.0614,3.063,3.0606,3.075,3.0707,3.0724,3.0778,3.0921,3.093,3.0937,3.0993,3.1009,3.1023,0,0,0,0,0,0,3.0388,3.043,3.0417,3.0518,3.0555,3.0592,3.0643,3.0628,3.0674,3.0667,3.0663,3.0672,3.076,3.0777,3.0728,3.0881,3.083,3.0842,3.0866,3.0882,3.0894,3.0887,3.0678,0,0,0,0,0,3.0411,3.047,3.0503,3.0588,3.0608,3.0622,3.0655,3.0652,3.0689,3.0704,3.0726,3.0761,3.0814,3.0849,3.0899,3.1001,3.1008,3.1047,3.1059,3.1069,3.1079,3.1133,3.115,3.0968,3.0968,3.0968,0,0,3.0458,3.0488,3.0525,3.0599,3.0627,3.0687,3.0636,3.0701,3.0744,3.0713,3.0795,3.0812,3.0851,3.0945,3.0987,3.0962,3.1131,3.108,3.1088,3.1092,3.1143,3.116,3.1175,3.0973,3.0972,3.0971,0,0,3.0574,3.0604,3.0678,3.0708,3.0752,3.0761,3.0779,3.0818,3.0828,3.0911,3.0888,3.0939,3.1031,3.1059,3.1086,3.1213,3.1192,3.1229,3.1294,3.1346,3.1361,3.1373,3.1417,3.1433,3.1239,3.1239,3.1239,0,3.0626,3.0717,3.0717,3.0785,3.0817,3.0794,3.0868,3.0896,3.0953,3.0975,3.0947,3.1062,3.1086,3.1185,3.1217,3.1239,3.1258,3.1224,3.1359,3.1372,3.1383,3.1425,3.1442,3.1243,3.1243,3.1242,3.1242,0,3.0778,3.0841,3.0895,3.0953,3.0992,3.1062,3.1072,3.111,3.1104,3.1115,3.1198,3.1227,3.1282,3.1306,3.13,3.1404,3.1387,3.1359,3.1308,3.1405,3.1444,3.146,3.1249,3.1248,3.1246,3.1245,0,0,3.0926,3.0984,3.1004,3.103,3.1077,3.1124,3.1193,3.1249,3.1281,3.1321,3.1377,3.1456,3.143,3.146,3.1457,3.1503,3.16,3.1469,3.147,3.1491,3.1715,3.1734,3.1753,3.1587,3.159,3.1593,3.1711,0,3.1044,3.1166,3.1169,3.1279,3.1337,3.1316,3.1375,3.1409,3.1422,3.147,3.1483,3.1538,3.1501,3.1519,3.1564,3.1579,3.1644,3.157,3.1637,3.1639,3.1626,3.1773,3.1795,3.1905,3.1726,3.1729,3.1731,0,3.1198,3.1245,3.1362,3.1401,3.1425,3.1479,3.1529,3.1577,3.1615,3.162,3.1655,3.1644,3.1712,3.166,3.1751,3.1701,3.1728,3.174,3.1744,3.1749,3.169,3.1781,3.194,3.1956,3.1755,3.1753,3.1751,0,3.1292,3.1385,3.1467,3.149,3.1537,3.1575,3.1596,3.1631,3.1664,3.1708,3.1729,3.178,3.1807,3.1845,3.1848,3.181,3.194,3.1889,3.1945,3.1945,3.1972,3.197,3.2137,3.1993,3.1992,3.1992,3.1992,0,3.1423,3.1495,3.151,3.156,3.164,3.1641,3.1719,3.1737,3.1768,3.182,3.1804,3.1853,3.1854,3.1903,3.1906,3.198,3.1993,3.1998,3.1998,3.1999,3.1998,3.2015,3.2007,3.1996,3.1995,3.1994,3.1994,0,3.1541,3.1554,3.1642,3.168,3.1692,3.1748,3.178,3.1827,3.1838,3.1904,3.1919,3.1936,3.1993,3.2,3.2066,3.2067,3.2157,3.2149,3.2145,3.2143,3.2198,3.2193,3.2381,3.2405,3.2246,3.2248,3.2249,0,3.1623,3.1678,3.1723,3.1758,3.1781,3.1837,3.1871,3.1874,3.191,3.1957,3.1998,3.2054,3.2098,3.219,3.2207,3.2256,3.2249,3.2311,3.2256,3.2255,3.2248,3.2244,3.2248,3.2321,3.2323,3.2324,3.2325,0,3.1766,3.177,3.1821,3.1875,3.1917,3.1959,3.1998,3.2026,3.2034,3.2075,3.2134,3.2169,3.2237,3.2291,3.2341,3.236,3.2343,3.2343,3.2358,3.2359,3.2354,3.2356,3.2172,3.2338,3.2337,3.2336,3.2335,3.2335,3.1868,3.1916,3.1955,3.2012,3.2042,3.2079,3.2125,3.2143,3.2193,3.2249,3.2248,3.2312,3.2347,3.2412,3.2435,3.2484,3.2463,3.2486,3.2491,3.2496,3.2501,3.2348,3.2493,3.2493,3.2492,3.2492,3.2492,0,3.2009,3.2033,3.2086,3.2142,3.2187,3.217,3.2213,3.225,3.2308,3.2343,3.2388,3.2455,3.2508,3.2529,3.2581,3.2615,3.2609,3.2629,3.2625,3.263,3.2518,3.2499,3.2633,3.2633,3.2633,3.2633,3.2633,3.2633,3.2087,3.2167,3.2176,3.227,3.2293,3.2358,3.2383,3.2416,3.2444,3.2521,3.2565,3.258,3.2609,3.2662,3.271,3.2714,3.2733,3.2756,3.2757,3.2652,3.2638,3.2624,3.2606,3.276,3.276,3.2864,3.2865,3.2866]}]]